RH
53 49 46 49 54 55 62 63 68 73 78 80 82 85 85 87 86 81 86 86 88 92 91 85 85 84 87 89 88 90 91 88 86
56 51 49 51 57 57 62 64 64 70 76 76 78 77 81 88 87 86 85 87 89 87 88 90 85 85 86 86 88 89 94 96 90
61 56 52 54 58 59 59 60 60 62 66 72 74 75 76 79 85 87 86 92 89 88 87 88 88 90 89 86 87 90 93 95 90
62 62 55 56 62 59 56 59 63 66 69 76 76 89 90 80 82 88 89 87 87 87 87 89 88 89 88 88 89 88 90 92 91
65 68 63 56 66 63 65 63 62 65 71 74 73 82 89 88 85 84 85 88 88 90 89 91 91 91 92 91 90 90 91 91 88
71 68 74 75 77 68 66 66 65 63 70 72 70 81 83 92 92 90 82 83 83 91 90 92 93 95 96 96 95 94 93 92 91
76 83 83 87 88 82 78 72 73 73 72 74 80 77 80 85 87 94 87 88 92 94 94 96 95 93 92 93 94 95 94 94 94
77 86 88 89 88 89 85 86 85 84 79 82 81 84 87 88 89 93 95 97 96 94 95 93 91 91 92 91 92 87 94 94 93
79 82 85 87 83 81 84 82 85 86 85 84 85 86 91 94 97 97 96 98 97 98 96 93 94 93 92 94 89 90 90 92 92
76 82 85 87 89 82 83 80 79 77 82 88 92 94 95 96 97 99 99 98 98 97 97 96 97 96 96 96 94 95 94 93 94
84 86 90 89 90 92 94 90 87 94 95 97 98 99 98 98 97 97 96 96 95 94 94 94 95 93 92 92 86 89 92 92 94
74 83 82 78 78 83 90 96 98 97 98 98 98 98 98 96 94 95 94 93 93 93 89 90 91 90 92 92 86 90 92 92 93
76 80 80 81 83 92 98 98 97 98 98 98 98 96 96 95 94 94 94 91 93 93 92 88 85 87 88 89 89 89 92 93 93
78 76 78 80 91 93 97 97 96 98 99 98 96 94 91 93 93 93 92 94 93 92 91 90 89 88 88 89 88 87 90 92 95
84 77 87 90 97 98 98 96 95 97 98 96 93 93 92 92 93 86 88 93 92 91 92 91 89 90 87 84 85 86 89 93 93
88 82 93 96 97 99 98 96 95 97 97 95 95 89 93 95 93 91 91 94 94 88 89 86 96 94 91 88 87 93 93 95 97
89 96 96 97 97 98 98 97 96 96 95 94 92 93 95 94 92 94 94 86 84 87 92 95 97 98 98 96 97 98 97 98 98
93 98 97 96 97 98 97 98 97 93 90 86 88 90 91 94 92 93 96 96 97 97 98 99 99 98 99 99 98 98 99 99 99
94 98 98 98 98 98 97 96 96 93 88 83 84 90 91 94 95 95 94 95 94 95 96 95 97 97 99 96 98 99 99 100 100
95 95 96 96 97 95 97 97 96 93 90 83 83 86 92 93 93 93 94 92 91 91 84 92 92 94 96 94 96 98 100 100 100
Wind_Speed
11 12 13 15 18 17 16 17 16 15 15 14 12 12 12 9 10 7 6 6 4 3 4 4 3 4 4 5 5 4 4 4 4
13 14 15 16 15 16 15 16 18 19 16 14 13 14 10 9 9 9 7 7 5 3 4 4 5 5 5 5 5 5 4 4 6
11 11 13 12 14 17 16 15 17 15 14 16 14 12 10 8 9 8 7 6 7 6 5 4 5 5 6 5 4 3 4 5 6
10 13 14 13 12 12 14 13 14 15 14 14 12 11 10 9 8 8 8 7 7 7 6 6 6 6 5 6 5 6 5 7 7
8 9 11 12 11 13 13 15 15 15 14 14 14 12 12 12 8 8 10 9 9 8 8 6 6 5 5 5 6 6 7 8 7
6 8 7 6 7 11 13 13 13 13 12 13 12 13 13 11 10 9 11 11 9 8 7 5 5 6 7 7 7 7 8 8 9
5 5 6 6 6 7 8 10 12 12 12 10 10 12 12 12 13 13 12 9 7 7 8 9 9 10 7 6 6 6 6 7 8
5 6 7 8 9 8 8 7 7 7 9 12 11 11 10 11 7 8 5 6 8 7 8 10 10 7 5 4 6 5 6 6 7
4 6 6 6 7 7 8 10 9 8 11 12 13 11 10 7 7 5 4 5 6 6 6 5 4 6 3 5 6 8 9 9 7
8 8 9 8 8 7 7 8 10 13 10 9 10 9 8 10 8 9 6 4 5 5 3 4 4 6 6 6 7 9 10 11 7
10 9 9 8 7 6 4 4 7 7 10 10 9 8 9 9 10 11 8 6 5 4 4 5 5 6 8 9 8 9 8 9 8
12 11 8 6 5 4 2 4 4 10 10 12 12 10 10 9 11 9 9 6 5 4 4 4 4 5 8 9 12 16 18 15 9
8 7 7 7 6 6 5 5 8 8 10 14 12 10 11 9 9 10 8 6 6 3 3 3 4 5 5 8 10 13 16 14 9
6 8 9 7 8 8 9 9 11 9 16 5 13 11 12 10 11 9 7 6 5 5 5 5 6 8 7 7 7 10 15 15 10
7 12 9 6 5 7 11 11 10 9 19 7 11 12 12 12 10 8 7 8 6 6 6 6 7 8 8 7 9 11 14 17 18
4 11 9 8 8 7 7 8 9 16 13 11 10 11 12 11 10 8 7 9 8 6 6 7 6 7 9 10 9 9 17 19 20
6 4 8 8 10 9 8 9 10 11 12 10 10 11 10 8 10 8 8 6 6 6 4 5 4 5 7 9 10 10 10 10 9
8 6 6 9 9 10 10 11 13 12 12 12 11 10 9 8 8 8 7 4 4 5 3 1 2 4 5 8 10 10 19 15 9
10 11 8 7 8 11 11 12 13 12 12 12 13 11 7 6 7 5 4 4 3 1 2 3 4 8 4 6 12 17 18 19 16
6 11 11 11 11 12 11 11 11 10 10 11 11 12 10 7 6 5 5 4 4 3 3 4 5 9 10 11 13 18 16 17 15
Wind_Direction
187 182 185 185 186 186 180 183 182 185 191 194 189 193 202 197 199 204 209 209 205 216 216 220 190 205 212 223 221 228 207 220 234
192 192 187 189 181 187 187 182 188 190 190 194 194 196 195 194 191 192 196 203 198 211 208 218 230 212 220 228 228 227 219 226 237
199 193 196 189 185 186 183 188 192 190 192 194 192 194 197 197 201 200 196 183 200 205 222 225 220 208 229 237 233 241 235 242 245
208 199 190 193 184 187 192 179 183 190 187 180 184 179 183 194 196 200 196 205 214 205 200 203 217 224 209 219 224 232 231 235 239
197 201 193 192 182 177 178 183 183 183 188 185 185 181 183 189 183 194 201 207 211 201 211 202 212 220 220 228 233 241 235 242 238
192 190 180 174 166 181 185 185 184 186 186 192 179 181 179 187 195 204 216 210 207 199 207 202 201 204 217 218 225 230 229 230 239
196 143 152 145 153 180 181 185 180 178 182 174 170 176 185 184 191 198 208 205 183 180 185 188 200 210 206 212 216 226 234 225 228
169 139 150 167 168 171 175 171 161 165 170 158 170 181 182 200 184 192 164 172 193 199 195 206 215 211 207 209 248 246 234 231 231
178 164 165 168 167 167 170 171 167 166 171 182 174 172 186 147 116 136 177 196 197 203 214 238 284 283 235 211 232 232 239 251 262
186 178 167 169 167 176 181 179 181 193 190 166 161 158 154 139 147 111 82 91 95 77 66 33 339 326 319 288 260 229 240 239 241
175 176 163 179 177 182 182 189 176 128 135 131 123 109 108 114 116 112 105 79 60 45 23 22 354 338 345 327 307 323 318 303 276
194 172 165 161 160 155 129 59 89 124 118 114 110 124 111 112 120 117 93 99 91 46 35 20 3 339 335 327 311 320 317 316 298
178 157 153 146 130 125 129 121 98 103 115 121 127 125 112 107 100 94 102 106 87 66 50 20 6 349 310 301 298 300 293 297 293
151 148 153 152 122 134 131 116 117 132 93 146 122 121 99 98 87 99 111 105 95 82 52 29 1 346 329 303 300 307 296 288 274
161 149 148 136 100 105 119 130 125 139 106 155 101 110 115 104 120 127 129 114 99 68 47 35 7 347 336 328 317 308 300 283 270
228 156 146 126 128 97 78 86 115 119 119 113 124 113 109 112 113 113 99 85 74 62 45 25 1 352 338 325 316 308 299 287 272
150 162 141 123 136 122 108 95 92 105 118 120 111 111 115 123 115 103 91 94 96 85 58 39 6 333 322 324 317 310 313 304 287
141 137 123 136 140 131 127 113 123 137 140 137 130 129 124 113 106 109 113 108 103 91 86 113 323 328 322 319 315 312 312 309 298
146 145 140 133 130 130 131 133 137 140 148 148 134 125 130 135 128 120 113 91 74 26 261 275 252 275 277 329 291 320 325 328 337
147 150 146 156 148 144 136 137 137 144 143 141 135 137 143 134 130 124 116 107 92 96 342 300 314 322 318 327 339 350 344 346 337